Wind_Speed
32 31 32 32 31 31 32 33 33 32 32 31 30 30 29 28 27 26 25 23 22 20 21 22 22 23 24 25 24 23 22 22 22 21 21 21 21 22 22 22 22 22 22 22
34 33 33 33 32 32 32 32 32 32 33 32 33 32 30 29 28 27 27 27 24 22 22 22 22 23 25 25 25 25 24 23 24 24 24 24 24 24 24 23 23 23 23 23
35 34 35 36 34 33 32 32 33 33 33 34 35 32 31 30 29 28 28 27 25 23 22 23 24 25 26 27 27 27 26 26 26 25 25 25 26 26 25 25 25 24 24 25
37 36 37 34 34 35 34 33 33 33 33 33 33 33 32 31 29 28 28 26 25 24 23 24 25 25 25 26 26 26 27 26 27 27 27 27 27 27 27 27 27 27 26 26
37 38 38 36 34 34 34 34 34 33 32 33 34 34 32 30 29 29 28 26 25 25 25 25 25 26 26 25 25 27 28 29 28 29 29 29 28 28 28 29 30 29 28 28
36 38 38 34 33 33 34 36 35 34 33 33 34 35 33 31 30 29 28 28 27 26 26 26 26 26 26 27 29 29 29 29 30 31 31 31 31 30 31 31 30 30 31 30
36 37 37 35 34 33 34 35 33 33 33 32 33 33 32 30 29 29 29 28 27 27 27 27 27 27 28 30 30 30 30 30 30 31 31 32 32 32 31 31 31 31 31 31
36 36 36 34 33 34 33 32 33 33 33 32 32 32 33 32 31 30 30 29 28 29 29 29 29 30 30 31 32 31 31 31 32 32 32 33 33 32 32 32 31 31 31 32
35 35 33 33 33 31 31 31 32 32 32 32 32 33 34 33 33 33 32 31 30 31 31 32 32 31 32 33 33 33 32 32 32 33 34 33 33 33 33 33 33 33 31 32
34 34 33 32 32 32 31 30 31 31 31 31 31 31 32 33 34 34 32 32 33 33 33 33 33 34 34 34 35 35 34 34 34 34 35 34 33 33 33 32 32 33 32 32
32 31 31 32 32 31 30 29 30 30 30 30 30 31 31 31 31 32 33 33 34 34 34 33 33 34 35 36 36 35 35 35 34 34 35 35 34 33 32 33 33 33 32 32
29 30 30 30 30 30 29 29 29 29 29 30 31 32 32 32 32 32 32 33 33 33 33 33 33 34 35 35 35 35 35 34 33 34 35 34 34 33 33 33 33 32 32 32
28 29 30 29 29 29 28 28 29 29 29 30 31 31 32 33 34 33 32 33 33 31 32 33 33 32 32 32 32 33 33 33 34 34 34 34 33 33 33 32 32 32 33 32
27 28 29 29 28 27 27 28 29 29 29 29 30 31 31 31 32 32 32 31 30 30 31 31 31 31 30 31 31 31 32 32 32 32 32 32 32 32 32 32 31 31 32 32
25 26 27 28 28 26 27 27 27 27 27 28 29 29 29 29 29 30 29 30 29 29 29 30 30 29 30 31 30 30 30 30 30 30 30 30 30 30 30 30 29 30 30 30
25 25 26 26 26 25 25 25 26 26 26 26 27 27 27 28 28 27 27 27 27 27 28 29 28 28 29 30 30 30 29 29 29 29 29 29 29 30 29 30 29 29 29 29
23 22 22 22 22 22 23 23 23 24 24 25 26 25 25 25 26 26 26 26 26 26 27 27 27 28 28 29 29 28 28 28 29 28 27 28 29 29 29 29 29 29 28 27
21 21 21 22 21 22 21 22 22 23 24 24 25 24 24 24 24 24 24 25 25 25 26 26 26 27 27 27 27 27 27 27 27 27 26 27 27 28 29 28 28 27 27 27
20 20 20 20 20 21 21 21 21 21 22 22 23 23 23 23 23 24 24 24 24 25 25 26 26 26 26 25 25 25 26 26 26 26 26 27 27 27 27 27 27 27 27 27
16 17 18 18 18 19 20 21 21 21 21 22 22 22 22 23 23 23 23 23 23 23 23 23 23 23 23 23 24 25 25 25 25 25 25 25 25 25 26 26 27 27 27 27
14 16 16 17 18 18 19 20 21 21 22 22 22 22 22 22 22 23 23 22 22 22 21 21 21 22 22 22 22 23 23 24 23 23 23 23 23 23 24 25 25 25 26 26
13 13 15 16 17 18 19 19 20 21 21 21 21 21 21 21 21 21 21 21 21 21 20 20 20 20 20 20 21 21 22 22 21 22 22 22 23 23 24 24 25 25 25 25
13 12 14 15 16 17 18 19 19 19 19 19 19 19 19 19 20 20 20 20 20 19 19 18 19 19 19 19 20 20 21 21 22 22 22 22 23 24 24 24 25 25 25 26
12 13 13 14 15 15 16 16 16 16 17 17 18 18 18 18 19 18 18 18 18 18 18 18 18 18 19 19 19 20 20 21 22 22 23 23 23 23 24 25 25 25 25 26
12 13 13 13 13 13 14 14 13 13 14 14 15 16 16 17 17 17 17 17 18 18 17 17 18 18 18 19 20 20 21 21 22 22 22 22 23 24 25 25 25 25 26 26
10 11 11 11 11 11 11 11 11 12 12 13 13 14 14 14 14 14 15 16 16 16 16 17 17 17 18 19 19 20 21 21 22 22 22 22 23 24 25 25 25 25 26 26
8 8 8 8 8 8 8 9 9 10 11 11 11 12 13 13 13 14 14 14 14 15 16 16 16 17 18 19 20 20 21 21 22 22 23 23 24 24 25 25 26 26 26 27
Wind_Direction
238 236 235 235 236 236 239 244 248 250 252 255 257 260 264 270 272 275 276 274 276 275 273 271 269 269 269 271 270 270 274 275 276 277 278 279 281 282 283 284 284 283 282 284
239 238 235 235 237 239 240 241 245 249 249 251 254 257 263 267 270 274 276 279 281 279 277 271 268 268 269 268 269 270 270 270 272 273 274 276 279 280 282 283 283 282 281 283
239 239 239 236 234 236 239 241 244 247 249 249 250 255 261 266 269 270 274 279 279 277 275 273 273 272 268 268 269 268 270 270 271 272 273 275 277 278 279 280 281 282 281 281
240 238 240 239 237 237 240 243 244 246 248 250 252 257 261 263 267 270 272 273 273 272 272 273 274 273 270 268 266 267 269 272 274 274 273 275 277 278 279 279 278 279 282 280
240 240 241 240 239 240 241 243 245 248 252 251 253 256 258 262 265 269 273 273 269 268 268 270 272 273 272 269 269 271 272 272 274 275 277 277 278 277 277 279 278 277 278 278
241 242 242 241 241 242 244 245 246 249 250 251 255 257 259 262 264 267 271 273 271 267 266 266 269 270 270 270 271 271 271 274 276 276 277 279 280 278 278 279 279 278 276 276
240 241 242 241 241 243 244 246 247 249 251 253 258 260 263 262 263 266 270 272 270 269 269 268 269 270 271 271 272 272 271 274 276 277 278 278 279 280 281 281 281 281 277 274
238 240 243 243 243 245 246 248 250 251 252 254 258 261 262 261 264 268 271 271 273 272 272 272 271 271 272 273 273 274 274 274 276 278 279 279 280 280 281 280 279 279 278 275
239 241 243 245 246 247 247 249 252 253 254 256 259 261 262 263 265 268 270 271 272 274 274 273 272 273 274 275 276 276 277 276 277 279 279 281 282 281 280 280 280 279 279 277
240 241 242 244 243 246 249 251 253 254 256 256 258 261 263 264 265 267 269 272 273 275 275 273 272 273 273 274 275 277 278 279 280 280 279 280 282 282 281 282 282 281 277 277
242 242 241 244 245 247 248 250 253 254 255 257 259 262 265 268 269 270 271 272 273 273 274 274 275 275 275 275 276 276 277 278 279 280 282 282 281 282 282 282 281 280 278 275
241 240 242 244 246 249 251 251 253 254 256 257 260 263 265 266 268 270 272 272 273 273 274 275 276 276 277 278 277 276 277 277 278 280 281 282 283 283 283 283 282 280 279 276
243 244 245 247 248 249 252 254 255 256 258 259 261 264 265 266 267 270 272 273 273 274 274 275 277 278 278 278 277 277 277 277 278 279 279 281 283 284 283 283 282 281 280 281
243 244 244 246 249 252 254 254 256 257 259 261 262 264 266 268 269 271 272 272 273 274 275 276 277 278 279 279 279 279 279 279 279 279 279 280 282 284 284 284 283 282 281 281
240 243 246 248 247 252 253 254 256 259 263 264 264 265 266 269 270 272 275 276 275 275 276 277 278 278 279 280 280 280 280 280 279 280 281 282 283 284 284 284 283 283 281 281
241 246 248 249 249 252 254 256 257 259 262 264 265 265 268 270 272 275 276 276 276 276 278 278 279 279 279 279 280 282 281 279 278 279 280 281 282 283 283 283 284 284 281 279
242 243 244 246 248 251 253 254 256 259 263 266 266 268 268 269 272 275 277 277 276 276 278 280 279 278 279 280 281 282 282 282 280 280 280 281 281 282 282 283 284 284 282 281
240 243 245 247 249 249 251 254 259 262 266 268 266 267 268 269 271 274 277 278 278 278 278 279 279 279 279 280 282 282 283 283 283 283 282 282 282 283 283 284 285 286 284 284
242 242 243 246 250 252 255 258 261 263 265 267 267 267 268 269 271 273 274 277 279 279 279 279 279 279 279 279 279 281 283 284 285 284 284 284 284 283 283 283 284 285 285 284
240 243 245 248 252 256 259 260 263 263 264 265 268 270 270 270 271 272 274 277 278 279 280 280 281 281 282 282 281 283 284 284 285 285 286 286 286 284 284 284 284 284 285 284
239 243 247 251 256 260 263 265 265 263 263 265 268 269 271 272 273 273 275 277 277 278 280 281 282 283 283 284 285 286 286 285 284 283 286 287 287 287 286 286 286 285 285 285
242 246 250 256 261 263 265 267 268 268 267 266 267 270 273 275 275 275 276 277 278 279 282 283 284 285 284 285 287 288 289 287 285 286 288 287 286 287 288 289 290 289 289 288
247 253 257 260 261 264 265 267 269 269 268 268 269 271 273 274 275 276 276 277 279 281 283 285 287 287 286 286 287 288 288 288 289 290 289 287 288 289 291 292 292 291 289 290
254 259 262 264 265 264 265 268 270 270 270 269 270 272 273 274 275 274 275 276 278 280 281 284 287 288 288 289 290 291 290 290 291 291 290 290 291 292 293 293 293 292 291 291
261 263 266 270 271 268 269 269 270 272 271 271 271 272 274 276 275 276 278 280 281 281 282 284 286 289 290 291 293 293 292 292 292 293 293 292 292 293 294 294 294 294 295 295
262 265 270 275 274 271 270 269 270 273 275 276 274 274 276 279 280 282 285 284 283 282 284 286 288 291 294 295 295 294 294 295 295 295 295 293 294 295 295 295 295 296 296 296
261 266 267 271 275 273 270 272 276 280 281 280 279 279 280 282 283 285 287 287 285 285 286 288 290 293 296 298 297 296 295 295 295 295 295 295 295 296 297 297 297 298 297 296
Height
5830 5833 5835 5837 5839 5841 5843 5844 5846 5848 5849 5852 5854 5855 5855 5855 5856 5855 5856 5856 5856 5856 5856 5856 5857 5857 5857 5858 5857 5858 5858 5858 5857 5857 5856 5855 5854 5853 5852 5851 5850 5848 5847 5846
5821 5824 5827 5829 5832 5834 5836 5837 5839 5841 5842 5845 5846 5847 5848 5849 5849 5849 5849 5849 5849 5849 5849 5849 5850 5850 5850 5850 5851 5850 5851 5851 5850 5850 5849 5848 5847 5846 5844 5843 5842 5841 5840 5839
5813 5816 5818 5821 5825 5827 5828 5830 5832 5833 5836 5837 5838 5840 5842 5842 5843 5842 5843 5843 5843 5842 5842 5843 5843 5843 5843 5843 5843 5843 5843 5843 5842 5842 5841 5840 5839 5838 5837 5836 5835 5834 5833 5832
5804 5808 5809 5816 5817 5819 5821 5823 5825 5827 5828 5830 5832 5833 5834 5835 5835 5835 5836 5836 5836 5836 5836 5836 5836 5836 5835 5835 5835 5835 5835 5835 5834 5834 5833 5831 5830 5829 5829 5828 5827 5826 5825 5823
5795 5797 5800 5806 5809 5811 5812 5815 5817 5818 5820 5822 5824 5826 5826 5827 5828 5829 5829 5828 5828 5829 5829 5828 5828 5828 5828 5828 5828 5828 5827 5827 5827 5826 5825 5823 5821 5820 5819 5819 5818 5817 5816 5814
5786 5789 5792 5798 5801 5802 5805 5806 5809 5811 5813 5814 5816 5818 5819 5820 5820 5821 5821 5821 5820 5820 5820 5820 5820 5820 5819 5820 5819 5819 5819 5819 5818 5817 5816 5815 5814 5812 5811 5809 5808 5807 5805 5804
5778 5780 5783 5789 5792 5795 5797 5799 5801 5803 5805 5806 5808 5810 5811 5812 5812 5812 5813 5812 5811 5811 5812 5812 5812 5812 5812 5812 5811 5810 5810 5810 5809 5809 5807 5806 5805 5803 5801 5800 5799 5797 5795 5795
5770 5772 5778 5781 5784 5786 5788 5791 5793 5795 5797 5798 5800 5801 5802 5803 5804 5804 5805 5804 5804 5804 5804 5804 5804 5804 5804 5803 5803 5802 5800 5800 5800 5799 5798 5797 5795 5793 5791 5790 5788 5787 5786 5785
5763 5767 5769 5772 5774 5777 5780 5782 5784 5786 5788 5790 5792 5793 5794 5795 5796 5797 5797 5797 5796 5796 5796 5796 5796 5796 5795 5794 5793 5793 5791 5791 5790 5789 5788 5787 5785 5783 5782 5780 5778 5776 5775 5774
5755 5758 5761 5764 5766 5769 5772 5774 5776 5778 5780 5781 5783 5784 5785 5786 5787 5788 5788 5787 5787 5787 5787 5786 5785 5786 5785 5784 5783 5783 5782 5782 5781 5779 5778 5776 5775 5773 5771 5769 5766 5765 5764 5763
5746 5750 5753 5756 5759 5762 5764 5766 5768 5769 5771 5773 5774 5776 5777 5777 5778 5778 5778 5778 5778 5777 5777 5777 5776 5775 5775 5774 5773 5772 5772 5771 5770 5769 5767 5765 5764 5763 5761 5759 5757 5755 5754 5752
5740 5743 5746 5749 5751 5754 5757 5759 5761 5762 5763 5764 5766 5767 5767 5768 5769 5769 5769 5769 5768 5767 5767 5766 5766 5765 5765 5764 5763 5762 5761 5760 5760 5759 5758 5756 5754 5753 5751 5749 5747 5745 5744 5742
5733 5735 5738 5740 5743 5746 5749 5751 5753 5754 5755 5756 5757 5757 5758 5758 5759 5759 5759 5759 5759 5759 5758 5757 5757 5756 5755 5754 5753 5752 5751 5750 5749 5748 5747 5746 5744 5743 5741 5740 5737 5735 5734 5733
5727 5729 5731 5734 5736 5739 5741 5743 5745 5746 5746 5747 5748 5749 5749 5749 5749 5749 5749 5749 5749 5749 5749 5748 5747 5747 5745 5744 5744 5743 5742 5740 5739 5738 5737 5736 5735 5733 5731 5730 5728 5726 5725 5723
5721 5723 5726 5728 5729 5731 5733 5735 5737 5738 5738 5739 5739 5740 5740 5740 5741 5741 5740 5740 5740 5739 5739 5739 5738 5737 5736 5735 5734 5734 5733 5732 5730 5729 5728 5727 5725 5724 5722 5720 5719 5718 5716 5715
5715 5717 5719 5721 5723 5724 5726 5728 5729 5730 5731 5731 5731 5732 5732 5732 5732 5732 5732 5732 5731 5731 5730 5730 5729 5729 5727 5726 5725 5725 5724 5723 5721 5720 5719 5717 5716 5715 5713 5711 5710 5709 5707 5706
5709 5711 5713 5715 5717 5719 5720 5721 5722 5723 5724 5724 5724 5724 5724 5724 5724 5724 5724 5724 5723 5723 5722 5721 5720 5720 5718 5717 5716 5716 5715 5714 5712 5711 5709 5709 5707 5706 5704 5703 5701 5699 5698 5696
5704 5706 5708 5710 5711 5713 5714 5715 5716 5716 5717 5716 5716 5716 5717 5717 5717 5717 5717 5716 5716 5715 5714 5713 5712 5711 5710 5709 5708 5707 5706 5705 5703 5702 5701 5700 5698 5697 5695 5694 5692 5691 5689 5688
5699 5701 5703 5704 5705 5707 5708 5709 5709 5710 5710 5709 5709 5709 5710 5710 5710 5710 5710 5709 5708 5707 5706 5705 5704 5703 5702 5701 5700 5699 5697 5696 5695 5693 5692 5691 5689 5688 5686 5685 5683 5682 5680 5679
5694 5696 5697 5698 5700 5700 5701 5702 5702 5703 5703 5702 5702 5703 5703 5703 5703 5702 5702 5702 5701 5700 5699 5698 5696 5695 5694 5693 5692 5690 5689 5688 5686 5685 5683 5682 5680 5678 5677 5676 5674 5673 5671 5670
5689 5691 5692 5693 5694 5694 5695 5695 5695 5696 5696 5695 5695 5696 5696 5696 5695 5695 5695 5694 5694 5693 5692 5691 5690 5688 5687 5686 5684 5683 5681 5679 5678 5676 5675 5674 5672 5670 5669 5667 5666 5664 5662 5661
5685 5686 5687 5688 5688 5688 5689 5689 5688 5688 5689 5689 5689 5689 5689 5689 5689 5688 5688 5687 5687 5686 5685 5683 5682 5681 5680 5679 5678 5676 5674 5672 5671 5669 5667 5666 5665 5663 5661 5659 5657 5656 5654 5652
5681 5682 5682 5683 5683 5683 5683 5682 5682 5682 5682 5683 5683 5682 5682 5682 5682 5682 5681 5681 5680 5679 5679 5677 5676 5675 5674 5673 5671 5670 5668 5666 5664 5662 5661 5659 5657 5655 5653 5651 5649 5648 5646 5643
5677 5678 5678 5678 5678 5677 5677 5677 5677 5677 5677 5676 5677 5676 5676 5676 5676 5675 5675 5675 5674 5673 5673 5672 5670 5669 5668 5666 5665 5663 5661 5659 5658 5656 5654 5652 5650 5648 5646 5644 5642 5640 5637 5635
5672 5673 5673 5673 5672 5672 5672 5672 5672 5672 5671 5671 5671 5671 5671 5671 5671 5670 5670 5669 5668 5667 5667 5666 5665 5663 5662 5660 5658 5657 5655 5653 5651 5649 5647 5645 5643 5641 5639 5637 5634 5632 5629 5627
5668 5668 5668 5668 5668 5667 5667 5667 5667 5667 5667 5667 5666 5666 5666 5666 5665 5665 5664 5663 5663 5662 5661 5660 5659 5658 5656 5654 5652 5650 5648 5646 5644 5642 5640 5638 5635 5633 5631 5628 5626 5624 5621 5618
5663 5664 5664 5665 5664 5664 5664 5664 5664 5663 5663 5663 5662 5662 5662 5662 5661 5661 5660 5659 5658 5657 5656 5655 5653 5652 5650 5648 5646 5644 5642 5639 5637 5635 5633 5630 5628 5625 5623 5620 5618 5615 5612 5610